When you browse on this site, cookies collect data to enhance your experience and personalize the content and advertising you see.
Visit our Privacy Policy to learn more. By continuing to use the site, you agree to this use of cookies and data.

Stündliche Wetter Bezlepkino

Heute, 11 Juli, Samstag

Zeit Temperatur Niederschläge Wind Luftdruck Luftfeuchtigkeit
00:00 +13°C° 0 mm 3 m/S 746 mmHg 84%
01:00 +13°C° 0 mm 3 m/S 746 mmHg 85%
02:00 +13°C° 0 mm 2 m/S 746 mmHg 83%
03:00 +14°C° 0 mm 2 m/S 746 mmHg 83%
04:00 +13°C° 0 mm 3 m/S 747 mmHg 83%
05:00 +13°C° 0 mm 3 m/S 747 mmHg 83%
06:00 +16°C° 0 mm 3 m/S 747 mmHg 80%
07:00 +18°C° 0 mm 4 m/S 747 mmHg 76%
08:00 +20°C° 0 mm 5 m/S 747 mmHg 72%
09:00 +21°C° 0 mm 5 m/S 747 mmHg 70%
10:00 +22°C° 0 mm 5 m/S 747 mmHg 69%
11:00 +23°C° 0 mm 5 m/S 747 mmHg 67%
12:00 +25°C° 0 mm 5 m/S 746 mmHg 67%
13:00 +25°C° 0 mm 5 m/S 746 mmHg 67%
14:00 +26°C° 0 mm 5 m/S 746 mmHg 67%
15:00 +25°C° 0 mm 5 m/S 746 mmHg 70%
16:00 +25°C° 0 mm 4 m/S 745 mmHg 73%
17:00 +25°C° 0 mm 4 m/S 745 mmHg 76%
18:00 +23°C° 0 mm 4 m/S 745 mmHg 81%
19:00 +21°C° 0 mm 3 m/S 745 mmHg 85%
20:00 +20°C° 0 mm 3 m/S 745 mmHg 90%
21:00 +19°C° 0 mm 3 m/S 745 mmHg 91%
22:00 +18°C° 0 mm 3 m/S 745 mmHg 92%
23:00 +18°C° 0 mm 3 m/S 745 mmHg 93%

Morgen, 12 Juli, Sonntag

Zeit Temperatur Niederschläge Wind Luftdruck Luftfeuchtigkeit
00:00 +17°C° 0 mm 3 m/S 745 mmHg 93%
01:00 +17°C° 0 mm 3 m/S 744 mmHg 93%
02:00 +16°C° 0 mm 3 m/S 744 mmHg 93%
03:00 +17°C° 0 mm 3 m/S 744 mmHg 92%
04:00 +17°C° 0 mm 2 m/S 744 mmHg 91%
05:00 +17°C° 0 mm 2 m/S 744 mmHg 90%
06:00 +19°C° 0 mm 2 m/S 744 mmHg 85%
07:00 +20°C° 0 mm 2 m/S 744 mmHg 80%
08:00 +23°C° 0 mm 2 m/S 744 mmHg 76%
09:00 +24°C° 0 mm 3 m/S 744 mmHg 73%
10:00 +25°C° 0 mm 3 m/S 743 mmHg 70%
11:00 +26°C° 0 mm 3 m/S 743 mmHg 67%
12:00 +26°C° 0 mm 3 m/S 743 mmHg 66%
13:00 +26°C° 0 mm 4 m/S 743 mmHg 66%
14:00 +27°C° 0 mm 4 m/S 742 mmHg 65%
15:00 +26°C° 0 mm 3 m/S 742 mmHg 67%
16:00 +26°C° 0 mm 3 m/S 742 mmHg 69%
17:00 +26°C° 0 mm 3 m/S 741 mmHg 72%
18:00 +24°C° 0 mm 2 m/S 741 mmHg 76%
19:00 +21°C° 0 mm 2 m/S 741 mmHg 80%
20:00 +21°C° 0 mm 1 m/S 741 mmHg 84%
21:00 +19°C° 0 mm 2 m/S 741 mmHg 85%
22:00 +18°C° 0 mm 2 m/S 740 mmHg 86%
23:00 +18°C° 0 mm 2 m/S 740 mmHg 87%

übermorgen, 13 Juli, Montag

Zeit Temperatur Niederschläge Wind Luftdruck Luftfeuchtigkeit
00:00 +17°C° 0 mm 2 m/S 740 mmHg 88%
01:00 +17°C° 0 mm 2 m/S 740 mmHg 89%
02:00 +16°C° 0 mm 1 m/S 739 mmHg 90%
03:00 +18°C° 0 mm 1 m/S 739 mmHg 89%
04:00 +18°C° 0 mm 1 m/S 739 mmHg 88%
05:00 +19°C° 0 mm 1 m/S 739 mmHg 88%
06:00 +20°C° 0 mm 1 m/S 739 mmHg 82%
07:00 +20°C° 0 mm 0 m/S 739 mmHg 77%
08:00 +22°C° 0 mm 0 m/S 739 mmHg 71%
09:00 +22°C° 0 mm 0 m/S 738 mmHg 68%
10:00 +25°C° 0 mm 1 m/S 738 mmHg 65%
11:00 +26°C° 0 mm 1 m/S 738 mmHg 62%
12:00 +26°C° 0.2 mm 1 m/S 738 mmHg 62%
13:00 +26°C° 0.2 mm 1 m/S 737 mmHg 61%
14:00 +27°C° 0.2 mm 1 m/S 737 mmHg 61%
15:00 +26°C° 0.9 mm 2 m/S 737 mmHg 67%
16:00 +25°C° 0.9 mm 2 m/S 737 mmHg 74%
17:00 +24°C° 0.9 mm 2 m/S 736 mmHg 81%
18:00 +22°C° 1.1 mm 3 m/S 736 mmHg 85%
19:00 +20°C° 1.1 mm 4 m/S 736 mmHg 89%
20:00 +19°C° 1.1 mm 5 m/S 736 mmHg 93%
21:00 +17°C° 1.6 mm 5 m/S 736 mmHg 94%
22:00 +17°C° 1.6 mm 5 m/S 736 mmHg 96%
23:00 +16°C° 1.6 mm 5 m/S 736 mmHg 97%

14 Juli, Dienstag

Zeit Temperatur Niederschläge Wind Luftdruck Luftfeuchtigkeit
00:00 +16°C° 1.7 mm 5 m/S 736 mmHg 97%
01:00 +16°C° 1.7 mm 5 m/S 735 mmHg 97%
02:00 +16°C° 1.7 mm 5 m/S 735 mmHg 97%
03:00 +16°C° 2.3 mm 5 m/S 735 mmHg 98%
04:00 +15°C° 2.3 mm 5 m/S 735 mmHg 98%
05:00 +15°C° 2.3 mm 5 m/S 735 mmHg 98%
06:00 +15°C° 1.8 mm 5 m/S 735 mmHg 97%
07:00 +15°C° 1.8 mm 5 m/S 736 mmHg 97%
08:00 +15°C° 1.8 mm 5 m/S 736 mmHg 96%
09:00 +15°C° 0.1 mm 6 m/S 736 mmHg 96%
10:00 +15°C° 0.1 mm 6 m/S 736 mmHg 95%
11:00 +15°C° 0.1 mm 6 m/S 736 mmHg 94%
12:00 +16°C° 0 mm 6 m/S 736 mmHg 91%
13:00 +17°C° 0 mm 6 m/S 736 mmHg 88%
14:00 +17°C° 0 mm 6 m/S 736 mmHg 85%
15:00 +17°C° 0 mm 6 m/S 736 mmHg 85%
16:00 +17°C° 0 mm 5 m/S 736 mmHg 85%
17:00 +17°C° 0 mm 5 m/S 736 mmHg 85%
18:00 +17°C° 0 mm 5 m/S 737 mmHg 86%
19:00 +17°C° 0 mm 4 m/S 737 mmHg 88%
20:00 +17°C° 0 mm 4 m/S 737 mmHg 89%
21:00 +15°C° 0 mm 4 m/S 737 mmHg 88%
22:00 +15°C° 0 mm 4 m/S 737 mmHg 86%
23:00 +15°C° 0 mm 4 m/S 737 mmHg 85%

15 Juli, Mittwoch

Zeit Temperatur Niederschläge Wind Luftdruck Luftfeuchtigkeit
00:00 +15°C° 0.1 mm 5 m/S 737 mmHg 83%
01:00 +15°C° 0.1 mm 5 m/S 736 mmHg 81%
02:00 +15°C° 0.1 mm 5 m/S 736 mmHg 79%
03:00 +15°C° 0.5 mm 5 m/S 736 mmHg 82%
04:00 +14°C° 0.5 mm 5 m/S 736 mmHg 84%
05:00 +14°C° 0.5 mm 5 m/S 736 mmHg 86%
06:00 +15°C° 0.4 mm 6 m/S 736 mmHg 85%
07:00 +15°C° 0.4 mm 6 m/S 736 mmHg 83%
08:00 +16°C° 0.4 mm 6 m/S 737 mmHg 81%
09:00 +15°C° 0.8 mm 6 m/S 737 mmHg 83%
10:00 +15°C° 0.8 mm 5 m/S 737 mmHg 86%
11:00 +15°C° 0.8 mm 5 m/S 737 mmHg 88%
12:00 +15°C° 1.1 mm 5 m/S 737 mmHg 88%
13:00 +15°C° 1.1 mm 5 m/S 737 mmHg 89%
14:00 +15°C° 1.1 mm 5 m/S 738 mmHg 90%
15:00 +14°C° 0.7 mm 5 m/S 738 mmHg 90%
16:00 +13°C° 0.7 mm 5 m/S 738 mmHg 91%
17:00 +12°C° 0.7 mm 5 m/S 738 mmHg 91%
18:00 +12°C° 0.2 mm 4 m/S 738 mmHg 91%
19:00 +12°C° 0.2 mm 4 m/S 738 mmHg 91%
20:00 +11°C° 0.2 mm 4 m/S 738 mmHg 91%
21:00 +11°C° 0.2 mm 4 m/S 738 mmHg 92%
22:00 +11°C° 0.2 mm 4 m/S 738 mmHg 92%
23:00 +11°C° 0.2 mm 4 m/S 738 mmHg 93%

16 Juli, Donnerstag

Zeit Temperatur Niederschläge Wind Luftdruck Luftfeuchtigkeit
00:00 +11°C° 0.1 mm 4 m/S 738 mmHg 92%
01:00 +12°C° 0.1 mm 4 m/S 738 mmHg 92%
02:00 +12°C° 0.1 mm 4 m/S 738 mmHg 91%
03:00 +12°C° 0 mm 4 m/S 738 mmHg 91%
04:00 +12°C° 0 mm 4 m/S 738 mmHg 90%
05:00 +12°C° 0 mm 4 m/S 738 mmHg 89%
06:00 +13°C° 0 mm 4 m/S 738 mmHg 88%
07:00 +13°C° 0 mm 4 m/S 737 mmHg 86%
08:00 +14°C° 0 mm 4 m/S 737 mmHg 85%
09:00 +17°C° 0 mm 4 m/S 737 mmHg 79%
10:00 +18°C° 0 mm 4 m/S 737 mmHg 73%
11:00 +20°C° 0 mm 4 m/S 738 mmHg 68%
12:00 +20°C° 0.1 mm 4 m/S 737 mmHg 69%
13:00 +20°C° 0.1 mm 4 m/S 737 mmHg 70%
14:00 +20°C° 0.1 mm 4 m/S 737 mmHg 71%
15:00 +20°C° 0.1 mm 3 m/S 737 mmHg 73%
16:00 +20°C° 0.1 mm 3 m/S 737 mmHg 74%
17:00 +20°C° 0.1 mm 3 m/S 737 mmHg 76%
18:00 +19°C° 0 mm 2 m/S 737 mmHg 80%
19:00 +17°C° 0 mm 2 m/S 737 mmHg 84%
20:00 +15°C° 0 mm 1 m/S 737 mmHg 87%
21:00 +15°C° 0 mm 1 m/S 737 mmHg 88%
22:00 +14°C° 0 mm 1 m/S 737 mmHg 89%
23:00 +13°C° 0 mm 1 m/S 737 mmHg 90%
Mehr zeigen